Maastricht, Netherlands

12:37 PM CET on December 05, 2016 (GMT +0100)
Maastricht-Aachen

Weather History for EHBK - February, 2013

Change the Weather History Date:

Sunday, February 3, 2013

  Actual Average Record
Temperature  
Mean Temperature 38 °F -  
Max Temperature 41 °F 43 °F 59 °F (2002)
Min Temperature 34 °F 34 °F 5 °F (2012)
Degree Days  
Heating Degree Days 28    
Moisture  
Dew Point 35 °F    
Average Humidity 89    
Maximum Humidity 100    
Minimum Humidity 61    
Precipitation  
Precipitation 0.04 in - - ()
Sea Level Pressure  
Sea Level Pressure 30.03 in    
Wind  
Wind Speed 10 mph ()    
Max Wind Speed 25 mph    
Max Gust Speed 37 mph    
Visibility 6.5 miles    
Events Rain    
Averages and records for this station are not official NWS values.
T = Trace of Precipitation, MM = Missing Value Source: Averaged Metar Reports

Daily Weather History Graph

Daily Weather History Graph

Search for Another Location

Airport or City:

Trip Planner

Search our weather history database for the weather conditions in past years. The results will help you decide how hot, cold, wet, or windy it might be!

Date:

Astronomy

Feb. 03, 2013 Rise Set
Actual Time 8:10 AM CET 5:32 PM CET
Civil Twilight 7:34 AM CET 6:07 PM CET
Nautical Twilight 6:55 AM CET 6:47 PM CET
Astronomical Twilight 6:16 AM CET 7:25 PM CET
Moon 1:19 AM CET (2/3) 10:55 AM CET (2/3)
Length of Visible Light 10h 32m
Length of Day
9h 22m
Waning Gibbous, 51% of the Moon is Illuminated
Feb 3
Waning Gibbous
Feb 3
Last Quarter
Feb 10
New
Feb 17
First Quarter
Feb 25
Full

Hourly Weather History & Observations

Time (CET) Temp. Windchill Dew Point Humidity Pressure Visibility Wind Dir Wind Speed Gust Speed Precip Events Conditions
12:25 AM 35.6 °F 30.7 °F 33.8 °F 93% 30.04 in 6.2 mi WNW 5.8 mph - N/A   Overcast
12:55 AM 35.6 °F 29.9 °F 33.8 °F 93% 30.04 in 6.2 mi WNW 6.9 mph - N/A   Overcast
1:00 AM 36 °F - 33 °F 85% 30.09 in 12 mi WNW 6.7 mph - -   Partly Cloudy
1:25 AM 35.6 °F 29.9 °F 33.8 °F 93% 30.04 in 6.2 mi WNW 6.9 mph - N/A   Mostly Cloudy
1:55 AM 37.4 °F 32.1 °F 33.8 °F 87% 30.06 in 6.2 mi WNW 6.9 mph - N/A   Overcast
2:25 AM 37.4 °F 32.1 °F 33.8 °F 87% 30.06 in 6.2 mi WNW 6.9 mph - N/A   Mostly Cloudy
2:55 AM 37.4 °F 33.8 °F 33.8 °F 87% 30.06 in 6.2 mi WNW 4.6 mph - N/A   Mostly Cloudy
3:25 AM 37.4 °F 32.8 °F 33.8 °F 87% 30.09 in 6.2 mi WNW 5.8 mph - N/A   Overcast
3:55 AM 37.4 °F 33.8 °F 33.8 °F 87% 30.09 in 6.2 mi WNW 4.6 mph - N/A   Overcast
4:00 AM 37 °F - 35 °F 87% 30.13 in 11 mi WNW 6.7 mph - -   Overcast
4:25 AM 37.4 °F 33.8 °F 33.8 °F 87% 30.09 in 6.2 mi WNW 4.6 mph - N/A   Overcast
4:55 AM 37.4 °F 32.8 °F 35.6 °F 93% 30.09 in 6.2 mi West 5.8 mph - N/A   Overcast
5:25 AM 37.4 °F 33.8 °F 35.6 °F 93% 30.09 in 6.2 mi West 4.6 mph - N/A   Overcast
5:55 AM 37.4 °F 33.8 °F 35.6 °F 93% 30.09 in 6.2 mi West 4.6 mph - N/A   Overcast
6:25 AM 37.4 °F 33.8 °F 35.6 °F 93% 30.12 in 6.2 mi West 4.6 mph - N/A   Overcast
6:55 AM 37.4 °F 32.8 °F 33.8 °F 87% 30.12 in 6.2 mi West 5.8 mph - N/A   Overcast
7:00 AM 36 °F - 35 °F 94% 30.14 in 11 mi West 4.5 mph - -   Partly Cloudy
7:25 AM 35.6 °F 30.7 °F 35.6 °F 100% 30.09 in 6.2 mi WSW 5.8 mph - N/A   Overcast
7:55 AM 35.6 °F 29.9 °F 35.6 °F 100% 30.09 in 6.2 mi WSW 6.9 mph - N/A   Overcast
8:25 AM 35.6 °F 29.2 °F 35.6 °F 100% 30.09 in 6.2 mi WSW 8.1 mph - N/A   Overcast
8:55 AM 35.6 °F 29.9 °F 35.6 °F 100% 30.09 in 5.0 mi WSW 6.9 mph - N/A   Overcast
9:25 AM 37.4 °F 32.1 °F 35.6 °F 93% 30.12 in 5.6 mi WSW 6.9 mph - N/A   Overcast
9:55 AM 37.4 °F 31.4 °F 35.6 °F 93% 30.12 in 5.6 mi WSW 8.1 mph - N/A   Mostly Cloudy
10:00 AM 37 °F - 36 °F 92% 30.14 in 6 mi WSW 8.9 mph - -   Overcast
10:25 AM 37.4 °F 30.3 °F 35.6 °F 93% 30.09 in 6.2 mi WSW 10.4 mph - N/A   Overcast
10:55 AM 37.4 °F 30.3 °F 35.6 °F 93% 30.09 in 6.2 mi WSW 10.4 mph - N/A   Overcast
11:25 AM 37.4 °F 29.3 °F 35.6 °F 93% 30.09 in 6.2 mi WSW 12.7 mph - N/A   Overcast
11:55 AM 39.2 °F 31.2 °F 33.8 °F 81% 30.06 in 6.2 mi WSW 13.8 mph - N/A   Mostly Cloudy
12:25 PM 39.2 °F 31.2 °F 32.0 °F 75% 30.06 in 6.2 mi WSW 13.8 mph - N/A   Overcast
12:55 PM 39.2 °F 30.5 °F 30.2 °F 70% 30.06 in 6.2 mi WSW 16.1 mph - N/A   Mostly Cloudy
1:00 PM 39 °F - 30 °F 61% 30.10 in 22 mi WSW 15.7 mph - -   Partly Cloudy
1:55 PM 37.4 °F 28.5 °F 28.4 °F 70% 30.04 in 6.2 mi WSW 15.0 mph - N/A   Unknown
2:25 PM 39.2 °F 29.6 °F 30.2 °F 70% 30.04 in 6.2 mi SW 19.6 mph - N/A   Scattered Clouds
2:55 PM 39.2 °F 29.3 °F 30.2 °F 70% 30.01 in 6.2 mi SW 20.7 mph - N/A   Scattered Clouds
3:25 PM 39.2 °F 29.0 °F 30.2 °F 70% 29.98 in 6.2 mi SW 21.9 mph 33.4 mph N/A   Overcast
3:55 PM 39.2 °F 28.7 °F 32.0 °F 75% 29.98 in 6.2 mi SW 23.0 mph - N/A   Overcast
4:00 PM 38 °F - 31 °F 68% 30.00 in 14 mi SW 22.4 mph - -   Overcast
4:25 PM 37.4 °F 26.1 °F 32.0 °F 81% 29.95 in 4.3 mi SW 24.2 mph 35.7 mph N/A   Drizzle
4:55 PM 37.4 °F 26.6 °F 33.8 °F 87% 29.95 in 4.3 mi SW 21.9 mph - N/A   Drizzle
5:25 PM 37.4 °F 25.9 °F 33.8 °F 87% 29.95 in - SW 25.3 mph 36.8 mph N/A   Drizzle
5:55 PM 37.4 °F 26.6 °F 35.6 °F 93% 29.95 in - SW 21.9 mph - N/A   Drizzle
6:25 PM 37.4 °F 26.1 °F 35.6 °F 93% 29.95 in 3.1 mi SW 24.2 mph - N/A   Drizzle
6:55 PM 37.4 °F 26.9 °F 35.6 °F 93% 29.95 in - SW 20.7 mph - N/A   Heavy Drizzle
7:00 PM 37 °F - 36 °F 97% 29.97 in 3 mi WSW 17.9 mph - - Rain Drizzle
7:25 PM 37.4 °F 27.5 °F 37.4 °F 100% 29.95 in 6.2 mi SW 18.4 mph - N/A   Overcast
7:55 PM 37.4 °F 28.2 °F 37.4 °F 100% 29.92 in 6.2 mi WSW 16.1 mph - N/A   Light Drizzle
8:25 PM 39.2 °F 30.5 °F 37.4 °F 93% 29.92 in 6.2 mi SW 16.1 mph - N/A   Overcast
8:55 PM 39.2 °F 30.8 °F 37.4 °F 93% 29.92 in 6.2 mi WSW 15.0 mph - N/A   Drizzle
9:25 PM 39.2 °F 29.3 °F 37.4 °F 93% 29.92 in 6.2 mi SW 20.7 mph - N/A   Light Drizzle
9:55 PM 39.2 °F 30.2 °F 39.2 °F 100% 29.92 in 6.2 mi SW 17.3 mph - N/A   Overcast
10:00 PM 40 °F - 38 °F 91% 29.94 in 11 mi SW 17.9 mph - - Rain Drizzle
10:25 PM 39.2 °F 31.2 °F 39.2 °F 100% 29.92 in 6.2 mi SW 13.8 mph - N/A   Overcast
10:55 PM 41.0 °F 33.1 °F 39.2 °F 93% 29.92 in 6.2 mi SW 15.0 mph - N/A   Light Drizzle
11:25 PM 41.0 °F 32.5 °F 39.2 °F 93% 29.89 in 5.6 mi SW 17.3 mph - N/A   Light Drizzle
11:55 PM 41.0 °F 32.2 °F 39.2 °F 93% 29.89 in 6.2 mi SW 18.4 mph - N/A   Overcast